STARLINK-1206, 45204

Orbit data source: Space-Track

STARLINK-1206, 45204 is a payload satellite owned by SpaceX/Seattle (US) in LEO that was launched on Mon, 17 Feb 2020 UTC via an FALCON 9 launch vehicle from the Air Force Eastern Test Range (AFETR). Payloads include a variety of satellites, spacecraft, and rockets equipped with specific instruments for various scientific and technological missions. These include communications satellites like Starlink; space stations such as the ISS; scientific satellites like the Hubble; Earth observation satellites from companies like Planet Labs, Umbra, and HawkEye 360; GPS; miniature CubeSats for education and research; and military/defense satellites.

Loading next visibility...
STARLINK-1206 details
Identifier
45204, 2020-012AC
Orbit
LEO
Last TLE update13 hours ago
Origin
Flag of USSpaceX/Seattle (US)
ManufacturerSpaceX/Seattle
MissionOperational Commercial Communications
Bus & MotorSTARLINK, Unknown motor
Mass260 kg wet, ~248 kg dry
Launch date (UTC)
2020-02-17 (5 years ago)
Launch vehicle
FALCON 9
Launch site
Air Force Eastern Test Range (AFETR)
Object type
Payload
Rocket body
Debris
Shape & HBRBox + 1 Pan, 8.86 m
Radar Cross Section13.562 m², Large (>1 m²)

Expand to show TLE details & history

TLE from 13 hours ago
0 STARLINK-1206
1 45204U 20012AC  24360.94179397  .00002943  00000-0  21635-3 0  9992
2 45204  53.0534 196.2315 0001637 100.3411 259.7762 15.06401421268054
Epoch: 2024-12-25T22:36Z
Definitive object data (Epoch: 2024-12-25T22:36:10.998Z)
Latitude-0.00009°
Longitude122.25729°
Altitude548.288 km
Speed7.589 km/s
True Right ascension13h 04m 55s
True Declination0° 00' 00"
Sunlit
Object was in daylight at TLE epoch
Visualization TLE readout
Latitude35.26386°
Longitude-92.16704°
Altitude548.854 km
Speed7.593 km/s
Apparent Right ascension23h 01m 14s
Apparent Declination0° 30' 04"
Sunlit
Object is in daylight
Visualization observer readout
Local Sidereal Time11:17:25
Azimuth6.361° NNE
Elevation-50.413°
Doppler factor1
Orbital elements
Apogee altitude548.612 km
Perigee altitude546.344 km
Semi-major axis6,925.615 km
Eccentricity0.0001637
Inclination53.0534°
RAAN196.2315°
Arg. of periapsis100.3411°
True anomaly259.75774°
Mean anomaly259.7762°
Eccentric anomaly259.76697°
Mean motion3.76579 °/min
BSTAR0.00021635
Orbital period95.6 mins
Loading maneuver chart data...

STARLINK-1206 Visibility forecast

Observer location: undefined°, undefined

Span
Click to sort rows by Start time (UTC) header in descending order
Start Az.
Max El. time (UTC)
Max El. Az.
Max El.
End time (UTC)
End Az.
4 mins2024-12-26 14:41:00.022Z156.844° SSE2024-12-26 14:43:00.022Z122.95° SE16.117°2024-12-26 14:45:00.022Z91.262° ESE
6 mins2024-12-26 16:19:00.022Z242.443° WSW2024-12-26 16:22:00.022Z331.922° NNW42.438°2024-12-26 16:25:00.022Z43.219° NE
4 mins2024-12-26 21:22:00.022Z349.909° N2024-12-26 21:24:00.022Z34.009° NE22.351°2024-12-26 21:26:00.022Z70.735° E
6 mins2024-12-26 23:01:00.022Z300.435° NW2024-12-26 23:03:00.022Z262.701° W41.127°2024-12-26 23:07:00.022Z141.75° SSE
|